User: anonymous   Login
Location: Unspecified
(0.0000°N, 0.0000°E)
Time: 14:29:06
(UTC+00:00)
Language:

A-11 Canister half - Orbit

View from above orbital plane
View from above orbital plane
View from above satellite
View from above satellite

Ground track
Ground track

The orbit data is extracted from the following two-line orbital elements,

1    53U 60009E   19200.86035086 -.00000139 +00000-0 -53414-3 0  9996
2    53 047.2734 207.7164 0098402 176.8168 183.3265 12.17228536627936
Epoch (UTC): 19 July 2019 20:38:54
Eccentricity: 0.0098402
inclination: 47.2734°
perigee height: 1526 km
apogee height: 1683 km
right ascension of ascending node: 207.7164°
argument of perigee: 176.8168°
revolutions per day: 12.17228536
mean anomaly at epoch: 183.3265°
orbit number at epoch: 62793

The dashed part of the orbit path shows where the satellite is in the earth's shadow,  

DLR